Location: Friaudour
(46.0460°N, 1.2873°E)
Time: 15:23:56
(UTC+00:00)

Spot 4 Rocket - Pass Details

Date: 27 October 2020
Orbit: 776 x 781 km, 98.7° (Epoch: 29 November)

Event Time Altitude Azimuth Distance (km) Brightness Sun altitude
Rises 05:15:56 0° 356° (N) 3,270 7.2 -13.2°
Reaches altitude 10° 05:20:33 10° 317° (NW) 2,336 6.1 -12.4°
Enters shadow 05:20:57 10° 313° (NW) 2,316 6.0 -12.3°
